Estevan Point, British Columbia

5:31 AM PDT on October 17, 2017 (GMT -0700)
Estevan Point

Weather History for CWEB - February, 2013

Change the Weather History Date:

Friday, February 22, 2013

  Actual Average Record
Temperature  
Mean Temperature 42 °F -  
Max Temperature 46 °F - - ()
Min Temperature 39 °F - - ()
Degree Days  
Heating Degree Days 22    
Moisture  
Dew Point -    
Average Humidity    
Maximum Humidity    
Minimum Humidity    
Precipitation  
Precipitation 0.83 in - - ()
Sea Level Pressure  
Sea Level Pressure 29.71 in    
Wind  
Wind Speed 19 mph ()    
Max Wind Speed 41 mph    
Max Gust Speed 54 mph    
T = Trace of Precipitation, MM = Missing Value Source: Averaged Metar Reports

Daily Weather History Graph

Daily Weather History Graph

Search for Another Location

Airport or City:

Trip Planner

Search our weather history database for the weather conditions in past years. The results will help you decide how hot, cold, wet, or windy it might be!

Date:

Astronomy

Feb. 22, 2013 Rise Set
Actual Time 7:21 AM PST 5:58 PM PST
Civil Twilight 6:49 AM PST 6:30 PM PST
Nautical Twilight 6:12 AM PST 7:07 PM PST
Astronomical Twilight 5:35 AM PST 7:44 PM PST
Moon 3:05 PM PST (2/22) 5:22 AM PST (2/22)
Length of Visible Light 11h 41m
Length of Day
10h 36m
Waxing Gibbous, 91% of the Moon is Illuminated
Feb 22
Waxing Gibbous
Feb 25
Full
Mar 4
Last Quarter
Mar 11
New
Mar 19
First Quarter

Hourly Weather History & Observations

Time (PST) Temp. Windchill Dew Point Humidity Pressure Visibility Wind Dir Wind Speed Gust Speed Precip Events Conditions
12:00 AM 42.1 °F 34.2 °F - N/A% 29.90 in - ESE 16.1 mph 26.5 mph 0.08 in   Unknown
1:00 AM 43 °F - - % 29.88 in - ESE 23.0 mph - -  
1:00 AM 42.8 °F 33.5 °F - N/A% 29.88 in - ESE 23.0 mph 29.9 mph 0.11 in   Unknown
2:00 AM 43.7 °F 35.0 °F - N/A% 29.82 in - SE 21.9 mph - 0.12 in   Unknown
3:00 AM 43.7 °F 36.9 °F - N/A% 29.78 in - ESE 13.8 mph 20.7 mph 0.09 in   Unknown
4:00 AM 44 °F - - % 29.73 in - ESE 16.1 mph - -  
4:00 AM 43.7 °F 36.3 °F - N/A% 29.73 in - ESE 16.1 mph 31.1 mph 0.19 in   Unknown
5:00 AM 43.7 °F 36.0 °F - N/A% 29.68 in - East 17.3 mph 26.5 mph 0.22 in   Unknown
6:00 AM 45.5 °F 38.6 °F - N/A% 29.62 in - ESE 16.1 mph 25.3 mph 0.21 in   Unknown
7:00 AM 46 °F - - % 29.60 in - SE 18.4 mph - -  
7:00 AM 45.9 °F 38.5 °F - N/A% 29.60 in - SE 18.4 mph - 0.18 in   Unknown
8:00 AM 46.0 °F 38.8 °F - N/A% 29.60 in - WSW 18.4 mph 26.5 mph 0.18 in   Unknown
9:00 AM 46.0 °F 38.3 °F - N/A% 29.60 in - WSW 20.7 mph - 0.02 in   Unknown
10:00 AM 47 °F - - % 29.60 in - SW 16.1 mph - -  
10:00 AM 46.6 °F - - N/A% 29.60 in - SW 16.1 mph - N/A   Unknown
11:00 AM 44.4 °F 34.7 °F - N/A% 29.62 in - West 28.8 mph 36.8 mph N/A   Unknown
12:00 PM 44.8 °F 34.2 °F - N/A% 29.65 in - WSW 35.7 mph 43.7 mph N/A   Unknown
1:00 PM 45 °F - - % 29.64 in - West 34.5 mph - -  
1:00 PM 44.8 °F 34.3 °F - N/A% 29.64 in - West 34.5 mph 42.6 mph N/A   Unknown
2:00 PM 43.9 °F 33.8 °F - N/A% 29.63 in - West 29.9 mph 39.1 mph N/A   Unknown
3:00 PM 42.4 °F 34.7 °F - N/A% 29.64 in - West 16.1 mph 23.0 mph N/A   Unknown
4:00 PM 40 °F - - % 29.68 in - West 34.5 mph - -  
4:00 PM 40.1 °F 27.9 °F - N/A% 29.68 in - West 34.5 mph 48.3 mph N/A   Unknown
5:00 PM 40.1 °F 30.7 °F - N/A% 29.69 in - West 19.6 mph 26.5 mph 0.02 in   Unknown
6:00 PM 41.7 °F 32.1 °F - N/A% 29.71 in - West 23.0 mph - N/A   Unknown
7:00 PM 41 °F - - % 29.73 in - West 23.0 mph - -  
7:00 PM 40.8 °F 30.9 °F - N/A% 29.73 in - West 23.0 mph 36.8 mph N/A   Unknown
8:00 PM 42.8 °F 33.8 °F - N/A% 29.75 in - WSW 21.9 mph - N/A   Unknown
9:00 PM 39.6 °F 30.3 °F - N/A% 29.78 in - WNW 18.4 mph - 0.02 in   Unknown
10:00 PM 41 °F - - % 29.80 in - West 23.0 mph - -  
10:00 PM 41.4 °F 31.6 °F - N/A% 29.80 in - West 23.0 mph 29.9 mph 0.08 in   Unknown
11:00 PM 42.6 °F 30.4 °F - N/A% 29.83 in - West 41.4 mph 54.1 mph 0.04 in   Unknown